Location: Recife
(8.0585°S, 34.8848°W)
Time: 20:15:35
(UTC-03:00)

A-11 Canister half - Pass Details

Date: 16 April 2026
Orbit: 1515 x 1684 km, 47.2° (Epoch: 16 May)

Event Time Altitude Azimuth Distance (km) Brightness Sun altitude
Rises 14:17:58 0° 314° (NW) 4,893 12.4 41.9°
Reaches altitude 10° 14:21:07 10° 312° (NW) 3,920 12.2 41.2°
Maximum altitude 14:31:11 71° 229° (SW) 1,763 10.2 38.8°
Drops below altitude 10° 14:41:18 10° 146° (SE) 3,933 10.8 36.5°
Sets 14:44:29 0° 144° (SE) 4,910 11.2 35.7°
